CEB24 RPLL-RPVA

Flight info

Callsign CEB24
Flight time 0h 56m
Altitude 31000
Route IPATA2R IPATA B462 ARREX ARREX2R
Aircraft A321/M-SDE3FGHIRWY/LB1

Departure

Time 2026-04-26 21:17
Airport Ninoy Aquino International Airport (RPLL)

Arrival

Time 2026-04-26 22:14
Airport Daniel Z. Romualdez Airport (RPVA)
Time Latitude Longitude Altitude Speed Heading
2026-04-26 20:58 14.51683 121.01698 69 ft 0 kts 197°
2026-04-26 21:06 14.51684 121.01698 69 ft 2 kts 197°
2026-04-26 21:06 14.51709 121.01706 60 ft 4 kts 197°
2026-04-26 21:06 14.51730 121.01713 64 ft 3 kts 196°
2026-04-26 21:06 14.51753 121.01715 59 ft 4 kts 152°
2026-04-26 21:07 14.51768 121.01703 67 ft 0 kts 135°
2026-04-26 21:07 14.51751 121.01720 64 ft 4 kts 135°
2026-04-26 21:07 14.51732 121.01740 60 ft 4 kts 135°
2026-04-26 21:07 14.51714 121.01759 65 ft 2 kts 135°
2026-04-26 21:08 14.51713 121.01760 66 ft 0 kts 135°
2026-04-26 21:10 14.51661 121.01784 66 ft 14 kts 176°
2026-04-26 21:10 14.51580 121.01735 62 ft 22 kts 224°
2026-04-26 21:10 14.51493 121.01642 65 ft 15 kts 225°
2026-04-26 21:10 14.51417 121.01580 69 ft 3 kts 219°
2026-04-26 21:11 14.51399 121.01570 66 ft 3 kts 197°
2026-04-26 21:11 14.51362 121.01585 65 ft 13 kts 143°
2026-04-26 21:11 14.51256 121.01691 64 ft 30 kts 134°
2026-04-26 21:11 14.51124 121.01828 69 ft 14 kts 135°
2026-04-26 21:12 14.51062 121.01892 62 ft 12 kts 134°
2026-04-26 21:12 14.51025 121.01915 67 ft 6 kts 171°
2026-04-26 21:12 14.50993 121.01899 56 ft 5 kts 229°
2026-04-26 21:12 14.50969 121.01858 64 ft 12 kts 240°
2026-04-26 21:13 14.50896 121.01728 63 ft 29 kts 240°
2026-04-26 21:13 14.50774 121.01509 63 ft 35 kts 240°
2026-04-26 21:13 14.50652 121.01292 67 ft 35 kts 239°
2026-04-26 21:13 14.50547 121.01103 60 ft 18 kts 240°
2026-04-26 21:14 14.50486 121.00990 59 ft 18 kts 240°
2026-04-26 21:14 14.50420 121.00873 63 ft 20 kts 240°
2026-04-26 21:14 14.50350 121.00747 64 ft 21 kts 240°
2026-04-26 21:14 14.50277 121.00615 63 ft 22 kts 239°
2026-04-26 21:15 14.50226 121.00524 62 ft 23 kts 241°
2026-04-26 21:15 14.50147 121.00380 66 ft 23 kts 240°
2026-04-26 21:15 14.50065 121.00233 64 ft 24 kts 240°
2026-04-26 21:15 14.49954 121.00036 60 ft 22 kts 240°
2026-04-26 21:16 14.49912 120.99974 66 ft 12 kts 216°
2026-04-26 21:16 14.49850 120.99980 68 ft 9 kts 154°
2026-04-26 21:16 14.49807 121.00022 64 ft 9 kts 103°
2026-04-26 21:16 14.49825 121.00079 65 ft 9 kts 64°
2026-04-26 21:17 14.49860 121.00141 59 ft 15 kts 60°
2026-04-26 21:17 14.50031 121.00451 58 ft 92 kts 60°
2026-04-26 21:17 14.50474 121.01241 82 ft 156 kts 61°
2026-04-26 21:17 14.51019 121.02251 689 ft 162 kts 63°
2026-04-26 21:18 14.51550 121.03280 1455 ft 162 kts 62°
2026-04-26 21:18 14.52117 121.04295 2111 ft 168 kts 61°
2026-04-26 21:18 14.52739 121.05400 2450 ft 189 kts 61°
2026-04-26 21:18 14.53435 121.06636 2665 ft 211 kts 61°
2026-04-26 21:19 14.54220 121.08038 2948 ft 240 kts 61°
2026-04-26 21:19 14.55088 121.09588 3725 ft 255 kts 61°
2026-04-26 21:19 14.55985 121.11194 4741 ft 261 kts 62°
2026-04-26 21:19 14.56847 121.12856 5728 ft 266 kts 69°
2026-04-26 21:20 14.57201 121.14738 6657 ft 272 kts 91°
2026-04-26 21:20 14.56750 121.16641 7540 ft 278 kts 117°
2026-04-26 21:20 14.55513 121.18181 8456 ft 283 kts 138°
2026-04-26 21:20 14.54031 121.19537 9407 ft 287 kts 139°
2026-04-26 21:21 14.52630 121.20811 10204 ft 292 kts 139°
2026-04-26 21:21 14.51044 121.22254 10619 ft 316 kts 139°
2026-04-26 21:21 14.49358 121.23793 11174 ft 329 kts 138°
2026-04-26 21:21 14.47626 121.25380 11967 ft 335 kts 138°
2026-04-26 21:22 14.45872 121.26992 12794 ft 340 kts 137°
2026-04-26 21:22 14.44093 121.28629 13623 ft 345 kts 137°
2026-04-26 21:22 14.42284 121.30297 14346 ft 350 kts 138°
2026-04-26 21:23 14.38599 121.33697 15759 ft 360 kts 139°
2026-04-26 21:23 14.36718 121.35426 16468 ft 365 kts 139°
2026-04-26 21:23 14.34801 121.37184 17180 ft 370 kts 139°
2026-04-26 21:23 14.32866 121.38956 17886 ft 375 kts 139°
2026-04-26 21:24 14.30904 121.40751 18531 ft 380 kts 139°
2026-04-26 21:24 14.28944 121.42548 19113 ft 384 kts 139°
2026-04-26 21:24 14.26939 121.44390 19711 ft 388 kts 139°
2026-04-26 21:24 14.24911 121.46254 20290 ft 393 kts 139°
2026-04-26 21:25 14.22858 121.48142 20872 ft 397 kts 139°
2026-04-26 21:25 14.20783 121.50047 21450 ft 402 kts 139°
2026-04-26 21:25 14.18689 121.51967 22012 ft 406 kts 139°
2026-04-26 21:25 14.16559 121.53919 22564 ft 411 kts 139°
2026-04-26 21:26 14.14413 121.55884 23116 ft 415 kts 139°
2026-04-26 21:26 14.12243 121.57869 23626 ft 419 kts 139°
2026-04-26 21:26 14.10059 121.59870 24109 ft 422 kts 139°
2026-04-26 21:26 14.07857 121.61886 24583 ft 425 kts 139°
2026-04-26 21:27 14.05638 121.63916 25067 ft 427 kts 140°
2026-04-26 21:27 14.03408 121.65957 25546 ft 430 kts 140°
2026-04-26 21:27 14.01166 121.68010 26026 ft 432 kts 140°
2026-04-26 21:27 13.98911 121.70074 26496 ft 435 kts 140°
2026-04-26 21:28 13.96641 121.72150 26971 ft 438 kts 140°
2026-04-26 21:28 13.94352 121.74241 27443 ft 441 kts 141°
2026-04-26 21:28 13.92047 121.76345 27916 ft 444 kts 141°
2026-04-26 21:28 13.89762 121.78431 28375 ft 446 kts 141°
2026-04-26 21:29 13.87484 121.80516 28811 ft 449 kts 140°
2026-04-26 21:29 13.85317 121.82860 29233 ft 455 kts 133°
2026-04-26 21:29 13.83277 121.85363 29655 ft 458 kts 133°
2026-04-26 21:29 13.81230 121.87883 30067 ft 461 kts 133°
2026-04-26 21:30 13.79840 121.89598 30307 ft 462 kts 133°
2026-04-26 21:30 13.79410 121.90130 30372 ft 463 kts 132°
2026-04-26 21:30 13.77351 121.92679 30714 ft 466 kts 133°
2026-04-26 21:30 13.75260 121.95248 30880 ft 467 kts 133°
2026-04-26 21:31 13.73197 121.97774 30915 ft 452 kts 133°
2026-04-26 21:31 13.71216 122.00198 30918 ft 435 kts 133°
2026-04-26 21:31 13.67366 122.04899 30919 ft 427 kts 133°
2026-04-26 21:32 13.63545 122.09565 30918 ft 426 kts 133°
2026-04-26 21:32 13.59732 122.14225 30916 ft 425 kts 133°
2026-04-26 21:33 13.55948 122.18853 30916 ft 425 kts 133°
2026-04-26 21:33 13.52142 122.23500 30912 ft 424 kts 133°
2026-04-26 21:34 13.48328 122.28152 30906 ft 424 kts 133°
2026-04-26 21:34 13.44520 122.32792 30904 ft 424 kts 133°
2026-04-26 21:35 13.40720 122.37422 30899 ft 424 kts 133°
2026-04-26 21:35 13.36947 122.42028 30898 ft 424 kts 133°
2026-04-26 21:36 13.33768 122.45904 30896 ft 424 kts 133°
2026-04-26 21:36 13.29351 122.51275 30899 ft 423 kts 133°
2026-04-26 21:37 13.25546 122.55901 30903 ft 424 kts 133°
2026-04-26 21:37 13.21749 122.60522 30899 ft 423 kts 133°
2026-04-26 21:38 13.17948 122.65143 30900 ft 423 kts 133°
2026-04-26 21:38 13.14156 122.69759 30896 ft 423 kts 133°
2026-04-26 21:39 13.10353 122.74364 30902 ft 423 kts 133°
2026-04-26 21:39 13.06551 122.78974 30902 ft 423 kts 133°
2026-04-26 21:40 13.02757 122.83581 30902 ft 423 kts 133°
2026-04-26 21:40 12.98977 122.88157 30905 ft 423 kts 133°
2026-04-26 21:41 12.95201 122.92727 30900 ft 423 kts 133°
2026-04-26 21:41 12.91409 122.97320 30901 ft 423 kts 133°
2026-04-26 21:42 12.87601 123.01931 30905 ft 423 kts 133°
2026-04-26 21:42 12.83805 123.06527 30902 ft 423 kts 133°
2026-04-26 21:43 12.80000 123.11123 30903 ft 422 kts 133°
2026-04-26 21:43 12.76192 123.15722 30904 ft 422 kts 133°
2026-04-26 21:44 12.72418 123.20281 30905 ft 422 kts 133°
2026-04-26 21:44 12.68612 123.24881 30906 ft 422 kts 133°
2026-04-26 21:45 12.64808 123.29466 30906 ft 422 kts 133°
2026-04-26 21:45 12.61000 123.34052 30908 ft 422 kts 133°
2026-04-26 21:46 12.57204 123.38640 30910 ft 422 kts 133°
2026-04-26 21:46 12.53405 123.43215 30908 ft 422 kts 133°
2026-04-26 21:47 12.49626 123.47759 30912 ft 422 kts 133°
2026-04-26 21:47 12.45824 123.52340 30908 ft 422 kts 133°
2026-04-26 21:48 12.42020 123.56919 30906 ft 422 kts 133°
2026-04-26 21:48 12.38208 123.61500 30905 ft 422 kts 133°
2026-04-26 21:49 12.34423 123.66085 30906 ft 422 kts 131°
2026-04-26 21:49 12.30684 123.70718 30906 ft 422 kts 131°
2026-04-26 21:50 12.27584 123.74577 30907 ft 422 kts 131°
2026-04-26 21:50 12.23232 123.79958 30900 ft 422 kts 131°
2026-04-26 21:51 12.19487 123.84564 30898 ft 422 kts 131°
2026-04-26 21:51 12.15743 123.89186 30897 ft 421 kts 131°
2026-04-26 21:52 12.12007 123.93797 30897 ft 421 kts 131°
2026-04-26 21:52 12.08257 123.98403 30896 ft 421 kts 131°
2026-04-26 21:53 12.04539 124.02972 30601 ft 419 kts 131°
2026-04-26 21:53 12.02685 124.05257 30129 ft 415 kts 131°
2026-04-26 21:53 12.00841 124.07534 29523 ft 414 kts 131°
2026-04-26 21:54 11.99008 124.09794 28982 ft 410 kts 131°
2026-04-26 21:54 11.97189 124.12032 28423 ft 408 kts 131°
2026-04-26 21:54 11.95383 124.14253 27872 ft 405 kts 131°
2026-04-26 21:54 11.93587 124.16458 27306 ft 403 kts 130°
2026-04-26 21:55 11.91801 124.18649 26771 ft 400 kts 130°
2026-04-26 21:55 11.90048 124.20802 26247 ft 398 kts 130°
2026-04-26 21:55 11.88280 124.22973 25738 ft 395 kts 130°
2026-04-26 21:55 11.86532 124.25122 25240 ft 392 kts 130°
2026-04-26 21:56 11.84797 124.27254 24752 ft 389 kts 130°
2026-04-26 21:56 11.83068 124.29378 24279 ft 386 kts 130°
2026-04-26 21:56 11.81355 124.31480 23787 ft 384 kts 130°
2026-04-26 21:56 11.79648 124.33575 23273 ft 382 kts 130°
2026-04-26 21:57 11.77957 124.35651 22757 ft 379 kts 129°
2026-04-26 21:57 11.76283 124.37705 22273 ft 374 kts 129°
2026-04-26 21:57 11.74621 124.39745 21777 ft 371 kts 129°
2026-04-26 21:57 11.73001 124.41731 21305 ft 367 kts 129°
2026-04-26 21:58 11.71373 124.43723 20814 ft 364 kts 129°
2026-04-26 21:58 11.69756 124.45702 20320 ft 362 kts 129°
2026-04-26 21:58 11.68147 124.47673 19828 ft 360 kts 129°
2026-04-26 21:58 11.66553 124.49626 19340 ft 358 kts 129°
2026-04-26 21:59 11.64964 124.51576 18854 ft 356 kts 129°
2026-04-26 21:59 11.63384 124.53511 18372 ft 354 kts 129°
2026-04-26 21:59 11.61810 124.55438 17855 ft 352 kts 128°
2026-04-26 21:59 11.60249 124.57347 17368 ft 348 kts 129°
2026-04-26 22:00 11.58705 124.59234 16901 ft 344 kts 129°
2026-04-26 22:00 11.57176 124.61103 16452 ft 341 kts 129°
2026-04-26 22:00 11.55667 124.62947 16006 ft 337 kts 129°
2026-04-26 22:00 11.54183 124.64763 15560 ft 335 kts 128°
2026-04-26 22:01 11.52699 124.66582 15121 ft 332 kts 128°
2026-04-26 22:01 11.51227 124.68384 14673 ft 330 kts 128°
2026-04-26 22:01 11.49653 124.70076 14238 ft 329 kts 137°
2026-04-26 22:01 11.47806 124.71456 13789 ft 328 kts 144°
2026-04-26 22:02 11.45920 124.72759 13291 ft 327 kts 144°
2026-04-26 22:02 11.44679 124.73617 13001 ft 325 kts 144°
2026-04-26 22:02 11.42820 124.74902 12549 ft 322 kts 144°
2026-04-26 22:02 11.40973 124.76180 12101 ft 319 kts 144°
2026-04-26 22:03 11.39147 124.77445 11649 ft 316 kts 144°
2026-04-26 22:03 11.37334 124.78701 11199 ft 314 kts 144°
2026-04-26 22:03 11.35527 124.79956 10746 ft 312 kts 144°
2026-04-26 22:03 11.33733 124.81203 10295 ft 311 kts 144°
2026-04-26 22:04 11.31961 124.82434 10063 ft 301 kts 144°
2026-04-26 22:04 11.30259 124.83616 9896 ft 291 kts 144°
2026-04-26 22:04 11.28610 124.84764 9779 ft 289 kts 144°
2026-04-26 22:04 11.26975 124.85901 9521 ft 280 kts 144°
2026-04-26 22:05 11.25361 124.87009 9111 ft 279 kts 145°
2026-04-26 22:05 11.23737 124.88080 8709 ft 277 kts 146°
2026-04-26 22:05 11.22116 124.89133 8311 ft 274 kts 146°
2026-04-26 22:05 11.20508 124.90172 7927 ft 272 kts 146°
2026-04-26 22:06 11.18917 124.91200 7536 ft 270 kts 146°
2026-04-26 22:06 11.17339 124.92223 7163 ft 267 kts 146°
2026-04-26 22:06 11.15785 124.93230 6783 ft 261 kts 146°
2026-04-26 22:06 11.14286 124.94203 6418 ft 251 kts 146°
2026-04-26 22:07 11.12840 124.95144 6058 ft 242 kts 145°
2026-04-26 22:07 11.11462 124.96042 5723 ft 235 kts 145°
2026-04-26 22:07 11.10087 124.96941 5385 ft 235 kts 145°
2026-04-26 22:07 11.08710 124.97842 5052 ft 235 kts 145°
2026-04-26 22:08 11.07330 124.98745 4717 ft 235 kts 145°
2026-04-26 22:08 11.05955 124.99644 4369 ft 235 kts 145°
2026-04-26 22:08 11.04609 125.00547 4058 ft 226 kts 140°
2026-04-26 22:08 11.03804 125.01834 3718 ft 215 kts 101°
2026-04-26 22:09 11.04084 125.03266 3465 ft 208 kts 59°
2026-04-26 22:09 11.05217 125.04034 3242 ft 198 kts 14°
2026-04-26 22:09 11.06505 125.03718 3017 ft 193 kts 324°
2026-04-26 22:09 11.07356 125.02735 2821 ft 177 kts 313°
2026-04-26 22:10 11.08331 125.02068 2607 ft 164 kts 342°
2026-04-26 22:10 11.09413 125.01909 2413 ft 152 kts
2026-04-26 22:10 11.10448 125.01975 2234 ft 147 kts
2026-04-26 22:10 11.11456 125.02037 2047 ft 140 kts
2026-04-26 22:11 11.12402 125.02096 1869 ft 133 kts
2026-04-26 22:11 11.13318 125.02153 1701 ft 130 kts
2026-04-26 22:11 11.14222 125.02212 1527 ft 130 kts
2026-04-26 22:11 11.15102 125.02270 1362 ft 129 kts
2026-04-26 22:12 11.16001 125.02330 1188 ft 130 kts
2026-04-26 22:12 11.16897 125.02387 1026 ft 129 kts
2026-04-26 22:12 11.17788 125.02444 855 ft 128 kts
2026-04-26 22:12 11.18678 125.02502 680 ft 128 kts
2026-04-26 22:13 11.19568 125.02562 488 ft 128 kts
2026-04-26 22:13 11.20458 125.02620 319 ft 128 kts
2026-04-26 22:13 11.21349 125.02676 143 ft 127 kts
2026-04-26 22:13 11.22229 125.02735 27 ft 122 kts
2026-04-26 22:14 11.22936 125.02785 15 ft 66 kts
2026-04-26 22:14 11.23202 125.02802 14 ft 35 kts
2026-04-26 22:14 11.23495 125.02823 17 ft 46 kts
2026-04-26 22:14 11.23658 125.02816 17 ft 10 kts 330°
2026-04-26 22:15 11.23711 125.02825 17 ft 8 kts 72°
2026-04-26 22:15 11.23678 125.02843 17 ft 7 kts 189°
2026-04-26 22:15 11.23608 125.02831 17 ft 18 kts 188°
2026-04-26 22:15 11.23417 125.02818 15 ft 37 kts 185°
2026-04-26 22:16 11.23107 125.02798 15 ft 48 kts 183°
2026-04-26 22:16 11.22767 125.02776 16 ft 50 kts 184°
2026-04-26 22:16 11.22580 125.02759 16 ft 8 kts 206°
2026-04-26 22:16 11.22572 125.02710 17 ft 8 kts 294°
2026-04-26 22:17 11.22600 125.02688 16 ft 5 kts 338°
2026-04-26 22:17 11.22621 125.02676 16 ft 3 kts 319°
2026-04-26 22:17 11.22633 125.02662 16 ft 2 kts 310°
2026-04-26 22:17 11.22638 125.02655 16 ft 0 kts 309°